Weather History for Harlingen, TX

Change the Weather History Date:

Wednesday, February 6, 2013

  Actual Average Record
Temperature  
Mean Temperature 75 °F 62 °F  
Max Temperature 84 °F 73 °F 89 °F (1957)
Min Temperature 65 °F 52 °F 29 °F (1889)
Degree Days  
Heating Degree Days 0 5  
Month to date heating degree days 3 30  
Since 1 July heating degree days 302 478  
Cooling Degree Days 10 2  
Month to date cooling degree days 34 12  
Year to date cooling degree days 104 61  
Growing Degree Days 25 (Base 50)    
Moisture  
Dew Point 68 °F    
Average Humidity 74    
Maximum Humidity 93    
Minimum Humidity 55    
Precipitation  
Precipitation 0.20 in 0.06 in 1.50 in (1965)
Month to date precipitation 0.21 0.34  
Year to date precipitation 2.75 1.40  
Sea Level Pressure  
Sea Level Pressure 29.88 in    
Wind  
Wind Speed 9 mph (SE)    
Max Wind Speed 23 mph    
Max Gust Speed 29 mph    
Visibility 9 miles    
Events Rain    
T = Trace of Precipitation, MM = Missing Value Source: NWS Daily Summary

Daily Weather History Graph

Daily Weather History Graph

Search for Another Location

Airport:

Trip Planner

Search our weather history database for the weather conditions in past years. The results will help you decide how hot, cold, wet, or windy it might be!

Date:

Astronomy

Feb. 06, 2013 Rise Set
Actual Time 7:12 AM CST 6:17 PM CST
Civil Twilight 6:48 AM CST 6:41 PM CST
Nautical Twilight 6:20 AM CST 7:08 PM CST
Astronomical Twilight 5:53 AM CST 7:36 PM CST
Moon 3:46 AM CST (2/6) 2:47 PM CST (2/6)
Length of Visible Light 11h 53m
Length of Day
11h 05m
Waning Crescent, 17% of the Moon is Illuminated
Feb 6
Waning Crescent
Feb 10
New
Feb 17
First Quarter
Feb 25
Full
Mar 4
Last Quarter

Hourly Weather History & Observations

Time (CST) Temp. Heat Index Dew Point Humidity Pressure Visibility Wind Dir Wind Speed Gust Speed Precip Events Conditions
12:52 AM 72.0 °F - 69.1 °F 91% 29.93 in 10.0 mi ESE 5.8 mph - N/A   Overcast
1:52 AM 72.0 °F - 68.0 °F 87% 29.92 in 10.0 mi ESE 10.4 mph - N/A   Overcast
2:10 AM 71.6 °F - 69.8 °F 94% 29.91 in 10.0 mi ESE 9.2 mph - N/A   Overcast
2:17 AM 71.6 °F - 68.0 °F 88% 29.91 in 10.0 mi ESE 9.2 mph - N/A   Overcast
2:37 AM 71.6 °F - 68.0 °F 88% 29.90 in 10.0 mi ESE 8.1 mph - N/A   Overcast
2:44 AM 71.6 °F - 68.0 °F 88% 29.90 in 10.0 mi SE 9.2 mph - N/A   Overcast
2:52 AM 72.0 °F - 68.0 °F 87% 29.90 in 10.0 mi ESE 8.1 mph - N/A   Overcast
3:00 AM 71.6 °F - 68.0 °F 88% 29.90 in 10.0 mi ESE 8.1 mph - N/A   Overcast
3:07 AM 71.6 °F - 68.0 °F 88% 29.90 in 10.0 mi ESE 9.2 mph - N/A   Overcast
3:20 AM 71.6 °F - 68.0 °F 88% 29.90 in 10.0 mi SE 9.2 mph - N/A   Overcast
3:52 AM 71.1 °F - 68.0 °F 90% 29.89 in 10.0 mi ESE 10.4 mph - N/A   Overcast
4:30 AM 71.6 °F - 68.0 °F 88% 29.90 in 10.0 mi ESE 10.4 mph - N/A   Overcast
4:45 AM 71.6 °F - 68.0 °F 88% 29.90 in 10.0 mi ESE 11.5 mph - N/A   Mostly Cloudy
4:52 AM 71.1 °F - 68.0 °F 90% 29.90 in 10.0 mi ESE 9.2 mph - N/A   Overcast
5:14 AM 71.6 °F - 69.8 °F 94% 29.90 in 10.0 mi East 8.1 mph - N/A   Overcast
5:26 AM 71.6 °F - 68.0 °F 88% 29.90 in 10.0 mi East 8.1 mph - N/A   Overcast
5:52 AM 71.1 °F - 69.1 °F 93% 29.90 in 10.0 mi ESE 8.1 mph - N/A   Overcast
6:00 AM 71.6 °F - 69.8 °F 94% 29.90 in 10.0 mi East 8.1 mph - N/A   Overcast
6:12 AM 71.6 °F - 68.0 °F 88% 29.89 in 10.0 mi East 6.9 mph - N/A   Overcast
6:52 AM 71.6 °F - 68.0 °F 88% 29.89 in 10.0 mi East 10.4 mph - N/A   Overcast
7:52 AM 71.1 °F - 68.0 °F 90% 29.91 in 10.0 mi East 4.6 mph - N/A   Overcast
8:52 AM 72.0 °F - 70.0 °F 93% 29.92 in 9.0 mi ESE 5.8 mph - 0.02 in   Overcast
9:12 AM 71.6 °F - 69.8 °F 94% 29.92 in 2.5 mi Variable 3.5 mph - N/A Rain Light Rain
9:16 AM 71.6 °F - 69.8 °F 94% 29.91 in 5.0 mi East 4.6 mph - 0.09 in Rain Rain
9:26 AM 71.6 °F - 69.8 °F 94% 29.92 in 5.0 mi South 4.6 mph - N/A Rain Light Rain
9:52 AM 73.0 °F - 70.0 °F 90% 29.92 in 5.0 mi SE 9.2 mph - 0.14 in Rain Light Rain
10:02 AM 73.4 °F - 71.6 °F 94% 29.91 in 5.0 mi SE 15.0 mph - 0.01 in Rain Rain
10:52 AM 75.9 °F - 71.1 °F 85% 29.91 in 10.0 mi South 15.0 mph - 0.04 in   Mostly Cloudy
11:52 AM 78.1 °F - 69.1 °F 74% 29.88 in 10.0 mi South 13.8 mph - N/A   Overcast
12:52 PM 82.0 °F 85.5 °F 69.1 °F 65% 29.83 in 10.0 mi South 17.3 mph 28.8 mph N/A   Scattered Clouds
1:52 PM 84.0 °F 87.0 °F 68.0 °F 58% 29.80 in 10.0 mi South 21.9 mph 27.6 mph N/A   Scattered Clouds
2:52 PM 82.9 °F 85.4 °F 66.9 °F 58% 29.77 in 10.0 mi South 17.3 mph - N/A   Partly Cloudy
3:52 PM 84.0 °F 87.0 °F 68.0 °F 58% 29.76 in 10.0 mi South 15.0 mph - N/A   Partly Cloudy
4:52 PM 82.9 °F 84.6 °F 64.9 °F 54% 29.75 in 10.0 mi South 8.1 mph - N/A   Clear
5:52 PM 79.0 °F - 66.9 °F 66% 29.77 in 10.0 mi South 9.2 mph - N/A   Clear
6:52 PM 73.0 °F - 66.9 °F 81% 29.79 in 10.0 mi SSE 8.1 mph - N/A   Clear
7:52 PM 71.1 °F - 64.0 °F 78% 29.83 in 10.0 mi North 8.1 mph - N/A   Clear
8:52 PM 69.1 °F - 64.0 °F 84% 29.85 in 10.0 mi North 4.6 mph - N/A   Mostly Cloudy
9:52 PM 66.9 °F - 64.0 °F 90% 29.86 in 10.0 mi Calm Calm - N/A   Clear
10:52 PM 66.9 °F - 64.0 °F 90% 29.87 in 10.0 mi Calm Calm - N/A   Partly Cloudy
11:19 PM 66.2 °F - 64.4 °F 94% 29.87 in 10.0 mi Calm Calm - N/A   Mostly Cloudy
11:41 PM 66.2 °F - 64.4 °F 94% 29.87 in 10.0 mi Calm Calm - N/A   Mostly Cloudy
11:52 PM 66.0 °F - 64.0 °F 93% 29.87 in 10.0 mi Calm Calm - N/A   Mostly Cloudy